Regional Weather Roundup
Issued by NWS

Home | Current Version | Previous Version | Graphics & Text | Print | Product List | Glossary On
Versions: 1 2 3 4 5 6 7 8 9 10 11 12 13 14 15 16 17 18 19 20 21 22 23 24 25 26 27 28 29 30 31 32 33 34 35 36 37 38 39 40 41 42 43 44 45 46 47 48 49 50
000
ASUS43 KFSD 270610
RWRSD

WEATHER ROUNDUP FOR SOUTH DAKOTA
NATIONAL WEATHER SERVICE SIOUX FALLS SD
100 AM CDT THU JUL 27 2017

NOTE: "FAIR" INDICATES FEW OR NO CLOUDS BELOW 12,000 FEET WITH NO
SIGNIFICANT WEATHER AND/OR OBSTRUCTIONS TO VISIBILITY.


SDZ001>005-009-010-012>017-270700-
NORTHWEST AND NORTH CENTRAL SOUTH DAKOTA

CITY           SKY/WX    TMP DP  RH WIND       PRES   REMARKS
BUFFALO          N/A     69  53  56 SE9       30.07S
FAITH            N/A     69  52  54 SE12      30.14R
MOBRIDGE       CLEAR     69  57  65 E12       30.11R
$$

SDZ012>016-024>037-041>051-057-063-072>074-270700-
SOUTHWEST AND SOUTH CENTRAL SOUTH DAKOTA

CITY           SKY/WX    TMP DP  RH WIND       PRES   REMARKS
RAPID CTY ARPT PTCLDY    68  52  56 SE6       30.17S
PIERRE         CLEAR     67  54  63 E3        30.10S
CUSTER         PTCLDY    65  49  56 CALM      30.30F
ELLSWORTH AFB  PTCLDY    70  53  55 S9        30.16S
PHILIP         PTCLDY    70  54  56 E3        30.13S
PINE RIDGE     MOCLDY    69  58  67 E7        30.18S
SPEARFISH      FAIR      72  52  49 CALM      30.18S
WINNER         FAIR      68  58  70 S7        30.13S
$$

SDZ004>011-016>023-039-040-270700-
NORTHEAST SOUTH DAKOTA

CITY           SKY/WX    TMP DP  RH WIND       PRES   REMARKS
ABERDEEN       CLEAR     65  60  84 N5        30.12R
WATERTOWN      CLEAR     62  60  93 CALM      30.12R
BROOKINGS      CLEAR     63  62  97 CALM      30.12R
SISSETON         N/A     62  60  93 NW8       30.10R
$$

SDZ017-020-022-023-036>040-048>070-270700-
SOUTHEAST SOUTH DAKOTA

CITY           SKY/WX    TMP DP  RH WIND       PRES   REMARKS
SIOUX FALLS    CLEAR     66  63  90 N7        30.09R
HURON          CLEAR     62  60  93 CALM      30.10R
CHAMBERLAIN    CLEAR     68  64  85 CALM      30.12S
MITCHELL       CLEAR     67  63  87 NW3       30.10R
YANKTON        CLEAR     66  61  84 N5        30.09R
$$

ABBREVIATIONS USED IN REMARKS
   TC - TEMPERATURE IN CELSIUS
  WCI - WIND CHILL INDEX
   HX - HEAT INDEX
  VSB - VISIBILITY





USA.gov is the U.S. government's official web portal to all federal, state and local government web resources and services.